| time (UTC) | temp F | wind direction | speed MPH | gust MPH | rain 1hr in | rain 24hr in | rain mn in | humidity % | barometer mb |
| 20260902005704 | 64 | 152 | 0.0 | 0.0 | 0.00 | 0.00 | 0.00 | 80 | 1009.2 |
| 20260902004204 | 64 | 152 | 0.0 | 2.0 | 0.00 | 0.00 | 0.00 | 80 | 1009.1 |
| 20260902003704 | 64 | 152 | 0.0 | 2.0 | 0.00 | 0.00 | 0.00 | 80 | 1009.2 |
| 20260902003204 | 64 | 152 | 0.0 | 0.0 | 0.00 | 0.00 | 0.00 | 80 | 1009.2 |
| 20260902002704 | 64 | 152 | 0.0 | 0.0 | 0.00 | 0.00 | 0.00 | 80 | 1009.2 |
| 20260902002204 | 64 | 152 | 0.0 | 0.0 | 0.00 | 0.00 | 0.00 | 80 | 1009.1 |
| 20260902001705 | 64 | 42 | 0.0 | 0.0 | 0.00 | 0.00 | 0.00 | 80 | 1009.1 |
| 20260902001205 | 64 | 42 | 0.0 | 0.0 | 0.00 | 0.00 | 0.00 | 80 | 1009.2 |
| 20260902000204 | 64 | 329 | 0.0 | 0.0 | 0.00 | 0.00 | 0.00 | 79 | 1009.3 |
| 20260901235704 | 64 | 329 | 1.0 | 2.0 | 0.00 | 0.00 | 0.00 | 79 | 1009.3 |
| 20260901235204 | 64 | 350 | 0.0 | 0.0 | 0.00 | 0.00 | 0.00 | 79 | 1009.3 |
| 20260901234705 | 64 | 350 | 0.0 | 2.0 | 0.00 | 0.00 | 0.00 | 79 | 1009.3 |
| 20260901234205 | 64 | 352 | 0.0 | 2.0 | 0.00 | 0.00 | 0.00 | 79 | 1009.3 |
| 20260901233204 | 64 | 281 | 2.0 | 3.0 | 0.00 | 0.00 | 0.00 | 79 | 1009.3 |
| 20260901232705 | 64 | 309 | 2.0 | 3.0 | 0.00 | 0.00 | 0.00 | 79 | 1009.3 |
| 20260901232204 | 64 | 308 | 2.0 | 5.0 | 0.00 | 0.00 | 0.00 | 79 | 1009.3 |
| 20260901231705 | 64 | 316 | 3.0 | 3.0 | 0.00 | 0.00 | 0.00 | 79 | 1009.3 |
| 20260901231204 | 64 | 320 | 3.0 | 5.0 | 0.00 | 0.00 | 0.00 | 78 | 1009.3 |
| 20260901230704 | 64 | 314 | 3.0 | 5.0 | 0.00 | 0.00 | 0.00 | 79 | 1009.3 |
| 20260901230205 | 64 | 335 | 3.0 | 7.0 | 0.00 | 0.00 | 0.00 | 78 | 1009.3 |
| 20260901225704 | 64 | 298 | 3.0 | 5.0 | 0.00 | 0.00 | 0.00 | 79 | 1009.3 |
| 20260901225203 | 64 | 300 | 3.0 | 7.0 | 0.00 | 0.00 | 0.00 | 78 | 1009.3 |
| 20260901224704 | 64 | 320 | 3.0 | 7.0 | 0.00 | 0.00 | 0.00 | 78 | 1009.3 |
| 20260901224204 | 64 | 293 | 3.0 | 6.0 | 0.00 | 0.00 | 0.00 | 78 | 1009.3 |
| 20260901223705 | 64 | 300 | 3.0 | 6.0 | 0.00 | 0.00 | 0.00 | 78 | 1009.3 |
| 20260901223206 | 64 | 294 | 3.0 | 3.0 | 0.00 | 0.00 | 0.00 | 79 | 1009.3 |
| 20260901222704 | 64 | 314 | 3.0 | 8.0 | 0.00 | 0.00 | 0.00 | 79 | 1009.3 |
| 20260901222204 | 64 | 305 | 3.0 | 8.0 | 0.00 | 0.00 | 0.00 | 79 | 1009.4 |
| 20260901221705 | 64 | 311 | 6.0 | 9.0 | 0.00 | 0.00 | 0.00 | 79 | 1009.5 |
| 20260901220704 | 64 | 316 | 5.0 | 8.0 | 0.00 | 0.00 | 0.00 | 80 | 1009.5 |
| 20260901220206 | 64 | 294 | 5.0 | 7.0 | 0.00 | 0.00 | 0.00 | 80 | 1009.5 |
| 20260901215704 | 64 | 315 | 3.0 | 5.0 | 0.00 | 0.00 | 0.00 | 80 | 1009.5 |
| 20260901214705 | 64 | 321 | 2.0 | 3.0 | 0.00 | 0.00 | 0.00 | 80 | 1009.6 |
| 20260901214205 | 64 | 307 | 4.0 | 7.0 | 0.00 | 0.00 | 0.00 | 79 | 1009.7 |
| 20260901213704 | 64 | 297 | 3.0 | 6.0 | 0.00 | 0.00 | 0.00 | 79 | 1009.7 |
| 20260901213205 | 65 | 303 | 3.0 | 6.0 | 0.00 | 0.00 | 0.00 | 78 | 1009.7 |
| 20260901211705 | 65 | 310 | 3.0 | 6.0 | 0.00 | 0.00 | 0.00 | 78 | 1009.8 |
| 20260901211204 | 65 | 281 | 5.0 | 8.0 | 0.00 | 0.00 | 0.00 | 78 | 1009.9 |
| 20260901210704 | 65 | 279 | 4.0 | 8.0 | 0.00 | 0.00 | 0.00 | 77 | 1009.9 |
| 20260901210205 | 65 | 278 | 6.0 | 9.0 | 0.00 | 0.00 | 0.00 | 77 | 1009.9 |
| 20260901205704 | 65 | 287 | 6.0 | 10.0 | 0.00 | 0.00 | 0.00 | 77 | 1009.9 |
| 20260901205204 | 65 | 286 | 6.0 | 10.0 | 0.00 | 0.00 | 0.00 | 76 | 1009.9 |
| 20260901203704 | 66 | 281 | 6.0 | 9.0 | 0.00 | 0.00 | 0.00 | 74 | 1010.0 |
| 20260901202704 | 67 | 327 | 5.0 | 9.0 | 0.00 | 0.00 | 0.00 | 72 | 1009.9 |
| 20260901201704 | 68 | 323 | 4.0 | 7.0 | 0.00 | 0.00 | 0.00 | 72 | 1009.8 |
| 20260901201204 | 68 | 302 | 6.0 | 9.0 | 0.00 | 0.00 | 0.00 | 73 | 1009.8 |
| 20260901200204 | 68 | 295 | 5.0 | 10.0 | 0.00 | 0.00 | 0.00 | 72 | 1009.8 |
| 20260901195704 | 68 | 280 | 3.0 | 10.0 | 0.00 | 0.00 | 0.00 | 72 | 1009.6 |
| 20260901195204 | 69 | 331 | 5.0 | 8.0 | 0.00 | 0.00 | 0.00 | 71 | 1009.6 |
| 20260901194704 | 69 | 292 | 6.0 | 9.0 | 0.00 | 0.00 | 0.00 | 72 | 1009.7 |
| 20260901194204 | 68 | 349 | 5.0 | 7.0 | 0.00 | 0.00 | 0.00 | 73 | 1009.7 |
| 20260901193703 | 68 | 292 | 5.0 | 8.0 | 0.00 | 0.00 | 0.00 | 73 | 1009.7 |
| 20260901193205 | 68 | 211 | 3.0 | 6.0 | 0.00 | 0.00 | 0.00 | 75 | 1009.8 |
| 20260901192705 | 68 | 297 | 2.0 | 6.0 | 0.00 | 0.00 | 0.00 | 75 | 1009.8 |
| 20260901192205 | 67 | 284 | 5.0 | 7.0 | 0.00 | 0.00 | 0.00 | 76 | 1009.8 |
| 20260901191704 | 67 | 259 | 5.0 | 12.0 | 0.00 | 0.00 | 0.00 | 77 | 1010.0 |
| 20260901191204 | 67 | 296 | 4.0 | 7.0 | 0.00 | 0.00 | 0.00 | 77 | 1009.9 |
| 20260901190704 | 67 | 306 | 5.0 | 9.0 | 0.00 | 0.00 | 0.00 | 77 | 1009.9 |
| 20260901190205 | 66 | 37 | 3.0 | 6.0 | 0.00 | 0.00 | 0.00 | 78 | 1009.9 |
| 20260901185704 | 66 | 99 | 3.0 | 9.0 | 0.00 | 0.00 | 0.00 | 77 | 1009.9 |
| 20260901185205 | 65 | 241 | 3.0 | 6.0 | 0.00 | 0.00 | 0.00 | 80 | 1009.8 |
| 20260901184704 | 65 | 303 | 3.0 | 7.0 | 0.00 | 0.00 | 0.00 | 79 | 1009.9 |
| 20260901184204 | 65 | 305 | 3.0 | 7.0 | 0.00 | 0.00 | 0.00 | 80 | 1009.9 |
| 20260901183704 | 64 | 268 | 3.0 | 6.0 | 0.00 | 0.00 | 0.00 | 81 | 1009.9 |
| 20260901183205 | 64 | 336 | 5.0 | 8.0 | 0.00 | 0.00 | 0.00 | 82 | 1009.9 |
| 20260901182705 | 64 | 297 | 3.0 | 7.0 | 0.00 | 0.00 | 0.00 | 83 | 1009.9 |
| 20260901181205 | 62 | 305 | 6.0 | 9.0 | 0.00 | 0.00 | 0.00 | 86 | 1010.0 |
| 20260901180704 | 62 | 321 | 3.0 | 9.0 | 0.00 | 0.00 | 0.00 | 87 | 1010.1 |
| 20260901175705 | 62 | 306 | 5.0 | 8.0 | 0.00 | 0.00 | 0.00 | 87 | 1010.0 |
| 20260901175204 | 61 | 311 | 6.0 | 9.0 | 0.00 | 0.00 | 0.00 | 88 | 1010.0 |
| 20260901174705 | 61 | 273 | 3.0 | 9.0 | 0.00 | 0.00 | 0.00 | 90 | 1010.0 |
| 20260901174204 | 60 | 307 | 6.0 | 10.0 | 0.00 | 0.00 | 0.00 | 90 | 1010.0 |
| 20260901173204 | 60 | 296 | 5.0 | 9.0 | 0.00 | 0.00 | 0.00 | 90 | 1010.0 |
| 20260901172704 | 60 | 273 | 7.0 | 9.0 | 0.00 | 0.00 | 0.00 | 90 | 1010.0 |
| 20260901172205 | 60 | 266 | 5.0 | 9.0 | 0.00 | 0.00 | 0.00 | 91 | 1010.0 |
| 20260901171704 | 60 | 243 | 7.0 | 12.0 | 0.00 | 0.00 | 0.00 | 91 | 1010.0 |
| 20260901171205 | 59 | 272 | 5.0 | 10.0 | 0.00 | 0.00 | 0.00 | 91 | 1010.0 |
| 20260901170704 | 59 | 267 | 6.0 | 9.0 | 0.00 | 0.00 | 0.00 | 91 | 1010.0 |
| 20260901170205 | 59 | 263 | 6.0 | 10.0 | 0.00 | 0.00 | 0.00 | 92 | 1010.0 |
| 20260901165704 | 59 | 285 | 2.0 | 6.0 | 0.00 | 0.00 | 0.00 | 92 | 1010.0 |
| 20260901164705 | 59 | 303 | 5.0 | 7.0 | 0.00 | 0.00 | 0.00 | 92 | 1009.8 |
| 20260901164205 | 59 | 266 | 4.0 | 7.0 | 0.00 | 0.00 | 0.00 | 93 | 1009.8 |
| 20260901163704 | 58 | 279 | 3.0 | 6.0 | 0.00 | 0.00 | 0.00 | 93 | 1009.8 |
| 20260901163206 | 58 | 272 | 5.0 | 7.0 | 0.00 | 0.00 | 0.00 | 94 | 1009.9 |
| 20260901162705 | 58 | 270 | 3.0 | 9.0 | 0.00 | 0.00 | 0.00 | 94 | 1009.9 |
| 20260901162205 | 58 | 260 | 5.0 | 7.0 | 0.00 | 0.00 | 0.00 | 94 | 1009.9 |
| 20260901161704 | 58 | 256 | 5.0 | 8.0 | 0.00 | 0.00 | 0.00 | 95 | 1009.9 |
| 20260901161205 | 58 | 288 | 2.0 | 3.0 | 0.00 | 0.00 | 0.00 | 95 | 1009.9 |
| 20260901160703 | 57 | 281 | 2.0 | 7.0 | 0.00 | 0.00 | 0.00 | 95 | 1009.9 |
| 20260901160204 | 57 | 263 | 2.0 | 8.0 | 0.00 | 0.00 | 0.00 | 95 | 1009.9 |
| 20260901155704 | 57 | 266 | 3.0 | 7.0 | 0.00 | 0.00 | 0.00 | 95 | 1009.8 |
| 20260901155204 | 57 | 285 | 2.0 | 3.0 | 0.00 | 0.00 | 0.00 | 96 | 1009.9 |
| 20260901154705 | 56 | 289 | 3.0 | 3.0 | 0.00 | 0.00 | 0.00 | 96 | 1009.9 |
| 20260901154204 | 56 | 294 | 1.0 | 3.0 | 0.00 | 0.00 | 0.00 | 96 | 1009.9 |
| 20260901153205 | 55 | 278 | 1.0 | 3.0 | 0.00 | 0.00 | 0.00 | 96 | 1009.9 |
| 20260901152705 | 55 | 274 | 1.0 | 3.0 | 0.00 | 0.00 | 0.00 | 96 | 1009.9 |
| 20260901152204 | 55 | 277 | 1.0 | 3.0 | 0.00 | 0.00 | 0.00 | 96 | 1009.9 |
| 20260901151706 | 54 | 274 | 2.0 | 3.0 | 0.00 | 0.00 | 0.00 | 96 | 1009.9 |
| 20260901151203 | 54 | 274 | 1.0 | 3.0 | 0.00 | 0.00 | 0.00 | 96 | 1009.8 |
| 20260901150704 | 53 | 260 | 0.0 | 1.0 | 0.00 | 0.00 | 0.00 | 96 | 1009.7 |
| 20260901150206 | 53 | 260 | 1.0 | 3.0 | 0.00 | 0.00 | 0.00 | 96 | 1009.7 |
| 20260901145704 | 53 | 261 | 0.0 | 1.0 | 0.00 | 0.00 | 0.00 | 96 | 1009.6 |
| 20260901145204 | 53 | 261 | 0.0 | 0.0 | 0.00 | 0.00 | 0.00 | 96 | 1009.6 |
| 20260901144204 | 52 | 280 | 1.0 | 2.0 | 0.00 | 0.00 | 0.00 | 96 | 1009.5 |
| 20260901143704 | 52 | 266 | 1.0 | 2.0 | 0.00 | 0.00 | 0.00 | 96 | 1009.5 |
| 20260901143204 | 52 | 266 | 0.0 | 2.0 | 0.00 | 0.00 | 0.00 | 96 | 1009.3 |
| 20260901142703 | 51 | 257 | 0.0 | 2.0 | 0.00 | 0.00 | 0.00 | 97 | 1009.3 |
| 20260901142204 | 51 | 190 | 0.0 | 0.0 | 0.00 | 0.00 | 0.00 | 97 | 1009.3 |
| 20260901141204 | 50 | 190 | 0.0 | 0.0 | 0.00 | 0.00 | 0.00 | 96 | 1009.3 |
| 20260901140703 | 50 | 190 | 0.0 | 0.0 | 0.00 | 0.00 | 0.00 | 96 | 1009.3 |
| 20260901140206 | 50 | 190 | 0.0 | 0.0 | 0.00 | 0.00 | 0.00 | 96 | 1009.3 |
| 20260901134204 | 49 | 190 | 0.0 | 0.0 | 0.00 | 0.00 | 0.00 | 96 | 1009.1 |
| 20260901133705 | 49 | 190 | 0.0 | 0.0 | 0.00 | 0.00 | 0.00 | 96 | 1009.1 |
| 20260901133205 | 49 | 190 | 0.0 | 0.0 | 0.00 | 0.00 | 0.00 | 96 | 1009.1 |
| 20260901132704 | 49 | 190 | 0.0 | 0.0 | 0.00 | 0.00 | 0.00 | 96 | 1009.1 |
| 20260901132204 | 49 | 190 | 0.0 | 0.0 | 0.00 | 0.00 | 0.00 | 96 | 1009.1 |
| 20260901131706 | 49 | 190 | 0.0 | 0.0 | 0.00 | 0.00 | 0.00 | 96 | 1009.0 |
| 20260901131205 | 48 | 190 | 0.0 | 0.0 | 0.00 | 0.00 | 0.00 | 96 | 1009.0 |
| 20260901130205 | 48 | 190 | 0.0 | 0.0 | 0.00 | 0.00 | 0.00 | 95 | 1009.0 |
| 20260901124203 | 48 | 190 | 0.0 | 1.0 | 0.00 | 0.00 | 0.00 | 95 | 1009.1 |
| 20260901123704 | 48 | 190 | 0.0 | 2.0 | 0.00 | 0.00 | 0.00 | 94 | 1009.1 |
| 20260901122704 | 49 | 155 | 0.0 | 1.0 | 0.00 | 0.00 | 0.00 | 95 | 1009.1 |
| 20260901122204 | 50 | 175 | 0.0 | 1.0 | 0.00 | 0.00 | 0.00 | 96 | 1009.2 |
| 20260901121705 | 50 | 288 | 0.0 | 1.0 | 0.00 | 0.00 | 0.00 | 95 | 1009.2 |
| 20260901120705 | 50 | 288 | 0.0 | 1.0 | 0.00 | 0.00 | 0.00 | 96 | 1009.2 |
| 20260901115703 | 49 | 288 | 0.0 | 3.0 | 0.00 | 0.00 | 0.00 | 95 | 1009.1 |
| 20260901115205 | 49 | 271 | 0.0 | 3.0 | 0.00 | 0.00 | 0.00 | 95 | 1009.1 |
| 20260901114705 | 49 | 202 | 0.0 | 0.0 | 0.00 | 0.00 | 0.00 | 95 | 1009.0 |
| 20260901114204 | 49 | 202 | 0.0 | 0.0 | 0.00 | 0.00 | 0.00 | 95 | 1009.1 |
| 20260901113704 | 49 | 202 | 0.0 | 0.0 | 0.00 | 0.00 | 0.00 | 95 | 1009.0 |
| 20260901113206 | 49 | 202 | 0.0 | 0.0 | 0.00 | 0.00 | 0.00 | 95 | 1009.0 |
| 20260901112704 | 49 | 202 | 0.0 | 0.0 | 0.00 | 0.00 | 0.00 | 95 | 1009.1 |
| 20260901112204 | 49 | 202 | 0.0 | 0.0 | 0.00 | 0.00 | 0.00 | 95 | 1009.1 |
| 20260901111705 | 49 | 202 | 0.0 | 0.0 | 0.00 | 0.00 | 0.00 | 95 | 1009.1 |
| 20260901111204 | 48 | 202 | 0.0 | 0.0 | 0.00 | 0.00 | 0.00 | 94 | 1009.1 |
| 20260901110205 | 49 | 202 | 0.0 | 0.0 | 0.00 | 0.00 | 0.00 | 94 | 1009.1 |
| 20260901105703 | 49 | 202 | 0.0 | 1.0 | 0.00 | 0.00 | 0.00 | 95 | 1009.1 |
| 20260901104705 | 49 | 202 | 0.0 | 1.0 | 0.00 | 0.00 | 0.00 | 94 | 1009.2 |
| 20260901103704 | 50 | 202 | 0.0 | 0.0 | 0.00 | 0.00 | 0.00 | 94 | 1009.2 |
| 20260901103205 | 50 | 202 | 0.0 | 1.0 | 0.00 | 0.00 | 0.00 | 94 | 1009.3 |
| 20260901102704 | 50 | 202 | 1.0 | 1.0 | 0.00 | 0.00 | 0.00 | 94 | 1009.3 |
| 20260901101705 | 50 | 202 | 0.0 | 1.0 | 0.00 | 0.00 | 0.00 | 94 | 1009.2 |
| 20260901100704 | 50 | 202 | 1.0 | 1.0 | 0.00 | 0.00 | 0.00 | 94 | 1009.2 |
| 20260901100205 | 50 | 202 | 0.0 | 0.0 | 0.00 | 0.00 | 0.00 | 93 | 1009.2 |
| 20260901095704 | 50 | 202 | 0.0 | 0.0 | 0.00 | 0.00 | 0.00 | 93 | 1009.3 |
| 20260901095204 | 50 | 202 | 0.0 | 0.0 | 0.00 | 0.00 | 0.00 | 93 | 1009.2 |
| 20260901094204 | 51 | 202 | 0.0 | 0.0 | 0.00 | 0.00 | 0.00 | 93 | 1009.2 |
| 20260901093704 | 51 | 202 | 0.0 | 0.0 | 0.00 | 0.00 | 0.00 | 94 | 1009.1 |
| 20260901092705 | 51 | 202 | 0.0 | 0.0 | 0.00 | 0.00 | 0.00 | 93 | 1009.1 |
| 20260901092204 | 51 | 202 | 0.0 | 0.0 | 0.00 | 0.00 | 0.00 | 93 | 1009.1 |
| 20260901091705 | 51 | 202 | 0.0 | 1.0 | 0.00 | 0.00 | 0.00 | 93 | 1009.1 |
| 20260901091205 | 51 | 202 | 0.0 | 1.0 | 0.00 | 0.00 | 0.00 | 94 | 1009.2 |
| 20260901090704 | 51 | 202 | 0.0 | 1.0 | 0.00 | 0.00 | 0.00 | 93 | 1009.2 |
| 20260901090206 | 52 | 202 | 0.0 | 0.0 | 0.00 | 0.00 | 0.00 | 94 | 1009.1 |
| 20260901085704 | 52 | 202 | 0.0 | 1.0 | 0.00 | 0.00 | 0.00 | 93 | 1009.0 |
| 20260901085204 | 52 | 202 | 0.0 | 1.0 | 0.00 | 0.00 | 0.00 | 93 | 1009.0 |
| 20260901084705 | 52 | 202 | 0.0 | 0.0 | 0.00 | 0.00 | 0.00 | 93 | 1008.9 |
| 20260901084204 | 52 | 202 | 0.0 | 0.0 | 0.00 | 0.00 | 0.00 | 93 | 1008.9 |
| 20260901083705 | 52 | 202 | 1.0 | 2.0 | 0.00 | 0.00 | 0.00 | 93 | 1008.9 |
| 20260901082704 | 52 | 202 | 1.0 | 3.0 | 0.00 | 0.00 | 0.00 | 93 | 1009.0 |
| 20260901081706 | 52 | 234 | 0.0 | 0.0 | 0.00 | 0.00 | 0.00 | 93 | 1009.0 |
| 20260901080704 | 52 | 234 | 0.0 | 0.0 | 0.00 | 0.00 | 0.00 | 93 | 1008.9 |
| 20260901080205 | 52 | 234 | 0.0 | 0.0 | 0.00 | 0.00 | 0.00 | 92 | 1008.8 |
| 20260901075705 | 52 | 234 | 0.0 | 0.0 | 0.00 | 0.00 | 0.00 | 92 | 1008.9 |
| 20260901075204 | 52 | 234 | 0.0 | 0.0 | 0.00 | 0.00 | 0.00 | 93 | 1008.9 |
| 20260901074705 | 52 | 234 | 0.0 | 0.0 | 0.00 | 0.00 | 0.00 | 92 | 1008.9 |
| 20260901074206 | 53 | 234 | 0.0 | 0.0 | 0.00 | 0.00 | 0.00 | 92 | 1008.9 |
| 20260901073703 | 53 | 234 | 0.0 | 0.0 | 0.00 | 0.00 | 0.00 | 92 | 1008.9 |
| 20260901072704 | 53 | 234 | 0.0 | 0.0 | 0.00 | 0.00 | 0.00 | 92 | 1008.9 |
| 20260901072204 | 53 | 234 | 0.0 | 0.0 | 0.00 | 0.00 | 0.00 | 92 | 1008.9 |
| 20260901071705 | 53 | 234 | 0.0 | 0.0 | 0.00 | 0.00 | 0.00 | 93 | 1008.9 |
| 20260901070704 | 53 | 234 | 0.0 | 1.0 | 0.00 | 0.00 | 0.00 | 92 | 1008.9 |
| 20260901070205 | 53 | 234 | 1.0 | 2.0 | 0.00 | 0.00 | 0.00 | 91 | 1009.0 |
| 20260901065705 | 53 | 234 | 1.0 | 1.0 | 0.00 | 0.00 | 0.00 | 91 | 1009.0 |
| 20260901065204 | 53 | 234 | 0.0 | 2.0 | 0.00 | 0.00 | 0.00 | 90 | 1009.1 |
| 20260901064705 | 54 | 234 | 2.0 | 3.0 | 0.00 | 0.00 | 0.00 | 90 | 1009.2 |
| 20260901064203 | 54 | 234 | 0.0 | 2.0 | 0.00 | 0.00 | 0.00 | 91 | 1009.2 |
| 20260901063704 | 54 | 234 | 1.0 | 2.0 | 0.00 | 0.00 | 0.00 | 91 | 1009.2 |
| 20260901063205 | 54 | 234 | 0.0 | 0.0 | 0.00 | 0.00 | 0.00 | 91 | 1009.2 |
| 20260901062703 | 54 | 234 | 0.0 | 2.0 | 0.00 | 0.00 | 0.00 | 91 | 1009.2 |
| 20260901062204 | 54 | 234 | 1.0 | 2.0 | 0.00 | 0.00 | 0.00 | 91 | 1009.2 |
| 20260901061705 | 54 | 234 | 1.0 | 2.0 | 0.00 | 0.00 | 0.00 | 91 | 1009.2 |
| 20260901061205 | 54 | 234 | 1.0 | 2.0 | 0.00 | 0.00 | 0.00 | 91 | 1009.2 |
| 20260901060704 | 54 | 234 | 1.0 | 2.0 | 0.00 | 0.00 | 0.00 | 90 | 1009.3 |
| 20260901060206 | 55 | 234 | 0.0 | 1.0 | 0.00 | 0.00 | 0.00 | 90 | 1009.3 |
| 20260901055705 | 55 | 234 | 1.0 | 2.0 | 0.00 | 0.00 | 0.00 | 90 | 1009.4 |
| 20260901054704 | 55 | 234 | 1.0 | 2.0 | 0.00 | 0.00 | 0.00 | 88 | 1009.4 |
| 20260901054204 | 56 | 234 | 1.0 | 2.0 | 0.00 | 0.00 | 0.00 | 88 | 1009.5 |
| 20260901053704 | 56 | 234 | 0.0 | 0.0 | 0.00 | 0.00 | 0.00 | 89 | 1009.5 |
| 20260901053204 | 56 | 234 | 0.0 | 0.0 | 0.00 | 0.00 | 0.00 | 88 | 1009.5 |
| 20260901052204 | 57 | 234 | 1.0 | 1.0 | 0.00 | 0.00 | 0.00 | 88 | 1009.5 |
| 20260901051706 | 57 | 234 | 1.0 | 2.0 | 0.00 | 0.00 | 0.00 | 88 | 1009.5 |
| 20260901050703 | 57 | 263 | 1.0 | 3.0 | 0.00 | 0.00 | 0.00 | 87 | 1009.5 |
| 20260901050205 | 57 | 264 | 2.0 | 3.0 | 0.00 | 0.00 | 0.00 | 87 | 1009.5 |
| 20260901045705 | 57 | 265 | 1.0 | 2.0 | 0.00 | 0.00 | 0.00 | 87 | 1009.5 |
| 20260901045205 | 58 | 265 | 2.0 | 3.0 | 0.00 | 0.00 | 0.00 | 86 | 1009.5 |
| 20260901044705 | 58 | 261 | 2.0 | 3.0 | 0.00 | 0.00 | 0.00 | 86 | 1009.6 |
| 20260901044204 | 58 | 273 | 2.0 | 3.0 | 0.00 | 0.00 | 0.00 | 86 | 1009.6 |
| 20260901043705 | 58 | 264 | 2.0 | 3.0 | 0.00 | 0.00 | 0.00 | 86 | 1009.5 |
| 20260901043205 | 58 | 266 | 2.0 | 3.0 | 0.00 | 0.00 | 0.00 | 85 | 1009.5 |
| 20260901042704 | 58 | 265 | 2.0 | 3.0 | 0.00 | 0.00 | 0.00 | 85 | 1009.5 |
| 20260901042204 | 58 | 280 | 2.0 | 6.0 | 0.00 | 0.00 | 0.00 | 85 | 1009.5 |
| 20260901041706 | 59 | 264 | 3.0 | 6.0 | 0.00 | 0.00 | 0.00 | 84 | 1009.5 |
| 20260901041205 | 59 | 275 | 3.0 | 6.0 | 0.00 | 0.00 | 0.00 | 84 | 1009.5 |
| 20260901040705 | 59 | 275 | 2.0 | 7.0 | 0.00 | 0.00 | 0.00 | 84 | 1009.5 |
| 20260901040205 | 59 | 267 | 3.0 | 6.0 | 0.00 | 0.00 | 0.00 | 84 | 1009.5 |
| 20260901035703 | 59 | 265 | 2.0 | 3.0 | 0.00 | 0.00 | 0.00 | 83 | 1009.5 |
| 20260901034705 | 59 | 261 | 2.0 | 3.0 | 0.00 | 0.00 | 0.00 | 83 | 1009.5 |
| 20260901034205 | 59 | 282 | 2.0 | 3.0 | 0.00 | 0.00 | 0.00 | 83 | 1009.5 |
| 20260901033704 | 59 | 293 | 2.0 | 3.0 | 0.00 | 0.00 | 0.00 | 83 | 1009.4 |
| 20260901033205 | 59 | 264 | 3.0 | 6.0 | 0.00 | 0.00 | 0.00 | 83 | 1009.4 |
| 20260901032704 | 59 | 266 | 2.0 | 6.0 | 0.00 | 0.00 | 0.00 | 83 | 1009.4 |
| 20260901031706 | 59 | 281 | 3.0 | 7.0 | 0.00 | 0.00 | 0.00 | 82 | 1009.4 |
| 20260901031204 | 59 | 283 | 3.0 | 7.0 | 0.00 | 0.00 | 0.00 | 82 | 1009.4 |
| 20260901030704 | 60 | 264 | 3.0 | 7.0 | 0.00 | 0.00 | 0.00 | 81 | 1009.4 |
| 20260901025204 | 61 | 265 | 4.0 | 7.0 | 0.00 | 0.00 | 0.00 | 79 | 1009.4 |
| 20260901024705 | 61 | 260 | 5.0 | 9.0 | 0.00 | 0.00 | 0.00 | 77 | 1009.4 |
| 20260901024204 | 62 | 284 | 4.0 | 7.0 | 0.00 | 0.00 | 0.00 | 76 | 1009.4 |
| 20260901023704 | 63 | 283 | 6.0 | 10.0 | 0.00 | 0.00 | 0.00 | 73 | 1009.4 |
| 20260901022704 | 69 | 297 | 6.0 | 10.0 | 0.00 | 0.00 | 0.00 | 65 | 1009.3 |
| 20260901021705 | 71 | 294 | 2.0 | 3.0 | 0.00 | 0.00 | 0.00 | 63 | 1009.3 |
| 20260901020704 | 71 | 296 | 1.0 | 2.0 | 0.00 | 0.00 | 0.00 | 63 | 1009.4 |
| 20260901020205 | 71 | 296 | 1.0 | 3.0 | 0.00 | 0.00 | 0.00 | 63 | 1009.4 |
| 20260901015705 | 70 | 296 | 1.0 | 2.0 | 0.00 | 0.00 | 0.00 | 64 | 1009.4 |
| 20260901015203 | 70 | 296 | 1.0 | 2.0 | 0.00 | 0.00 | 0.00 | 64 | 1009.4 |
| 20260901014704 | 69 | 296 | 1.0 | 1.0 | 0.00 | 0.00 | 0.00 | 65 | 1009.5 |
| 20260901012704 | 69 | 304 | 1.0 | 3.0 | 0.00 | 0.00 | 0.00 | 63 | 1009.5 |
| 20260901012205 | 69 | 293 | 2.0 | 3.0 | 0.00 | 0.00 | 0.00 | 64 | 1009.5 |
| 20260901011205 | 69 | 300 | 1.0 | 3.0 | 0.00 | 0.00 | 0.00 | 65 | 1009.7 |
| 20260901010705 | 69 | 288 | 1.0 | 3.0 | 0.00 | 0.00 | 0.00 | 65 | 1009.7 |
| 20260901010205 | 70 | 314 | 1.0 | 3.0 | 0.00 | 0.00 | 0.00 | 64 | 1009.7 |